Regional Weather Roundup
Issued by NWS

Home | Current Version | Previous Version | Text Only | Print | Product List | Glossary On
Versions: 1 2 3 4 5 6 7 8 9 10 11 12 13 14 15 16 17 18 19 20 21 22 23 24 25 26 27 28 29 30 31 32 33 34 35 36 37 38 39 40 41 42 43 44 45 46 47 48 49 50
000
ASUS43 KOAX 271802
RWRNE

WEATHER ROUNDUP FOR NEBRASKA
NATIONAL WEATHER SERVICE OMAHA NE
100 PM CDT MON JUL 27 2015

NOTES: SATELLITE DATA IS BEING USED TO AUGMENT CLOUD COVER ABOVE
       12000 FEET.
       "FAIR" INDICATES FEW OR NO CLOUDS BELOW 12,000 FEET WITH NO
       SIGNIFICANT WEATHER AND/OR OBSTRUCTIONS TO VISIBILITY.

  * THESE STATIONS DO NOT REPORT WEATHER SUCH AS RAIN...SNOW OR FOG.

NEZ001>004-019>022-054>056-271900-
NEBRASKA PANHANDLE

CITY           SKY/WX    TMP DP  RH WIND       PRES   REMARKS
SCOTTSBLUFF    SUNNY     85  65  51 E13       29.83F
6HR MIN TEMP:  60; 6HR MAX TEMP:  85;

ALLIANCE       SUNNY     84  66  54 S17G25    29.84F
6HR MIN TEMP:  55; 6HR MAX TEMP:  84;

CHADRON        SUNNY     91  63  39 S9        29.76F HX  92
6HR MIN TEMP:  65; 6HR MAX TEMP:  91;

KIMBALL        SUNNY     87  58  37 S9        29.88F
SIDNEY         SUNNY     84  65  52 SE9G17    29.88F
6HR MIN TEMP:  60; 6HR MAX TEMP:  84;

$$

NEZ057>060-069>072-079>082-271900-
SOUTHWEST NEBRASKA

CITY           SKY/WX    TMP DP  RH WIND       PRES   REMARKS
NORTH PLATTE   SUNNY     83  68  60 S15       29.85F
6HR MIN TEMP:  63; 6HR MAX TEMP:  84;

IMPERIAL       MOSUNNY   88  66  48 SE16      29.85F HX  90
6HR MIN TEMP:  61; 6HR MAX TEMP:  88;

MCCOOK         MOSUNNY   88  67  49 S17       29.86F HX  91
6HR MIN TEMP:  66; 6HR MAX TEMP:  88;

$$

NEZ005>010-023>029-035>040-094-271900-
NORTH CENTRAL NEBRASKA

CITY           SKY/WX    TMP DP  RH WIND       PRES   REMARKS
VALENTINE      SUNNY     87  63  44 SE14G26   29.82F
6HR MIN TEMP:  62; 6HR MAX TEMP:  88;

AINSWORTH      SUNNY     87  65  49 S18       29.83F
BROKEN BOW     SUNNY     87  69  54 S15G24    29.86F HX  91
6HR MIN TEMP:  68; 6HR MAX TEMP:  87;

O`NEILL        MOSUNNY   91  66  44 S16G22    29.84F HX  93
ORD            SUNNY     88  65  46 S13       29.84F HX  90
6HR MIN TEMP:  70; 6HR MAX TEMP:  88;

$$

NEZ041-046>049-061>064-073>077-083>087-271900-
SOUTH CENTRAL NEBRASKA

CITY           SKY/WX    TMP DP  RH WIND       PRES   REMARKS
GRAND ISLAND   SUNNY     84  68  58 SE12      29.89F
6HR MIN TEMP:  71; 6HR MAX TEMP:  84;

AURORA         MOSUNNY   83  69  61 SE12      29.90F
HASTINGS       SUNNY     84  71  65 SE13      29.90F
6HR MIN TEMP:  72; 6HR MAX TEMP:  84;

KEARNEY *      SUNNY     84  70  61 SE13      29.88F
$$

NEZ011>018-030>034-042>045-271900-
NORTHEAST NEBRASKA

CITY           SKY/WX    TMP DP  RH WIND       PRES   REMARKS
NORFOLK        MOSUNNY   86  75  69 SE12      29.87F HX  95
6HR MIN TEMP:  77; 6HR MAX TEMP:  86;

ALBION         MOSUNNY   89  66  46 S13       29.88S HX  91
BLAIR          CLOUDY    81  75  81 SE9       29.91F
COLUMBUS *     MOSUNNY   86  72  62 S9        29.88F HX  92
FREMONT        CLOUDY    84  72  67 SE12      29.90S
TEKAMAH        PTSUNNY   83  72  69 SE13      29.90R
6HR MIN TEMP:  77; 6HR MAX TEMP:  84; 6HR PCP: TRACE;

$$

NEZ050>053-065>068-078-088>093-271900-
SOUTHEAST NEBRASKA

CITY           SKY/WX    TMP DP  RH WIND       PRES   REMARKS
LINCOLN        PTSUNNY   85  70  60 S8        29.91R
6HR MIN TEMP:  76; 6HR MAX TEMP:  86;

OMAHA EPPLEY   CLOUDY    83  78  85 SE12      29.90F HX  93
6HR MIN TEMP:  78; 6HR MAX TEMP:  83; 6HR PCP:  0.07;

BEATRICE       PTSUNNY   84  69  60 S8        29.91S
FALLS CITY     LGT RAIN  82  76  81 CALM      29.91F
6HR MIN TEMP:  76; 6HR MAX TEMP:  83; 6HR PCP: TRACE;

NEBRASKA CITY  CLOUDY    80  72  78 SE5       29.92S
$$

NEZ044-045-051>053-067-271900-
OMAHA AREA

CITY           SKY/WX    TMP DP  RH WIND       PRES   REMARKS
OMAHA EPPLEY   CLOUDY    83  78  85 SE12      29.90F HX  93
6HR MIN TEMP:  78; 6HR MAX TEMP:  83; 6HR PCP:  0.07;

BLAIR          CLOUDY    81  75  81 SE9       29.91F
FREMONT        CLOUDY    84  72  67 SE12      29.90S
OFFUTT AFB     CLOUDY    82  76  82 E8        29.91S
WAHOO          CLOUDY    83  71  66 S6        29.91R
$$


USA.gov is the U.S. government's official web portal to all federal, state and local government web resources and services.